Home   Weather   Maastricht   Past weeks

Flag for Netherlands Past Weather in Maastricht, Netherlands — Yesterday and Last 2 Weeks

Now
50 °F

Partly sunny.


Feels Like: 47 °F
Forecast: 35 / 55 °F
Wind: 8 mph from West

Location: Maastricht Airport Zuid Limburg

Current Time: Apr 28, 2017 at 2:38:15 pm

Latest Report: Apr 28, 2017 at 1:55 pm


Visibility: N/A

Pressure: 29.95 "Hg

Humidity: 67%

Dew Point: 39 °F

Location of MaastrichtLocation

Past Weather in Maastricht — Graph

°F

Maastricht Temperature Yesterday

Maximum temperature yesterday: 50 °F (at 12:55 pm)
Minimum temperature yesterday: 34 °F (at 5:25 am)
Average temperature yesterday: 42 °F

High & Low Weather Summary for the Past Weeks

 TemperatureHumidityPressure
High59 °F (Apr 24, 2:55 pm)100% (Apr 15, 9:55 am)30.63 "Hg (Apr 15, 9:55 am)
Low28 °F (Apr 20, 3:25 am)35% (Apr 20, 6:25 pm)29.74 "Hg (Apr 25, 12:25 am)
Average44 °F70%30.15 "Hg
* Reported Apr 13 1:25 pm — Apr 28 1:25 pm, Maastricht, Weather by CustomWeather, © 2017

Note: Actual official high and low records may vary slightly from our data, if they occured in-between our weather recording intervals... More about our weather records

Advertising

Maastricht Weather History for the Previous 24 Hours

Scroll right to see more
 ConditionsComfort  
Time TempWeatherWind HumidityBarometerVisibility
1:25 pm
Fri, Apr 28
50 °FClear.9 mph71%29.95 "HgN/A
12:55 pm50 °FScattered clouds.7 mph71%29.95 "HgN/A
12:25 pm50 °FBroken clouds.6 mph71%29.95 "HgN/A
11:55 am50 °FPartly sunny.8 mph76%29.95 "HgN/A
11:25 am45 °FOvercast.10 mph76%29.95 "HgN/A
10:55 am45 °FMostly cloudy.10 mph76%29.95 "HgN/A
10:25 am43 °FOvercast.10 mph76%29.95 "HgN/A
9:55 am43 °FOvercast.9 mph76%29.95 "HgN/A
9:25 am41 °FOvercast.10 mph81%29.95 "HgN/A
8:55 am39 °FMore clouds than sun.12 mph81%29.95 "HgN/A
8:25 am39 °FMostly cloudy.12 mph81%29.95 "HgN/A
7:55 am37 °FOvercast.13 mph87%29.95 "HgN/A
7:25 am37 °FClear.9 mph87%29.95 "HgN/A
6:55 am36 °FPartly sunny.8 mph93%29.95 "HgN/A
6:25 am36 °FPassing clouds.8 mph87%29.95 "HgN/A
5:55 am36 °FClear.9 mph87%29.95 "HgN/A
5:25 am36 °FClear.9 mph93%29.95 "HgN/A
4:55 am36 °FClear.8 mph93%29.95 "HgN/A
4:25 am36 °FPassing clouds.7 mph93%29.98 "HgN/A
3:55 am36 °FClear.6 mph93%29.98 "Hg5 mi
3:25 am34 °FClear.5 mph93%29.98 "Hg5 mi
2:55 am34 °FClear.7 mph93%29.98 "HgN/A
2:25 am34 °FClear.6 mph93%29.98 "HgN/A
1:55 am36 °FClear.6 mph87%29.98 "HgN/A
1:25 am36 °FChilly.3 mph93%29.98 "HgN/A
12:55 am36 °FClear.5 mph87%30.01 "HgN/A
12:25 am36 °FClear.6 mph93%30.01 "HgN/A
11:55 pm
Thu, Apr 27
36 °FClear.5 mph93%30.01 "HgN/A
11:25 pm36 °FClear.5 mph93%30.01 "HgN/A
10:55 pm37 °FPassing clouds.7 mph87%30.01 "HgN/A
10:25 pm39 °FPassing clouds.5 mph87%30.01 "HgN/A
9:55 pm41 °FPassing clouds.3 mph81%30.01 "HgN/A
9:25 pm41 °FPassing clouds.2 mph81%30.01 "HgN/A
8:55 pm45 °FPassing clouds.2 mph71%30.01 "HgN/A
8:25 pm43 °FScattered clouds.5 mph81%30.01 "HgN/A
7:55 pm43 °FDrizzle. Partly sunny.8 mph76%30.01 "HgN/A
7:25 pm45 °FScattered clouds.5 mph76%30.01 "HgN/A
6:55 pm46 °FPassing clouds.3 mph71%30.01 "HgN/A
6:25 pm45 °FDrizzle. Cloudy.5 mph76%30.01 "HgN/A
5:55 pm46 °FBroken clouds.8 mph71%30.01 "HgN/A
5:25 pm48 °FClear.3 mph62%30.01 "HgN/A
4:55 pm45 °FPassing clouds.7 mph71%30.01 "HgN/A
4:25 pm41 °FSprinkles. Partly sunny.8 mph76%30.04 "HgN/A
3:55 pm45 °FPassing clouds.10 mph71%30.01 "HgN/A
3:25 pm48 °FClear.13 mph62%30.01 "HgN/A
2:55 pm50 °FClear.8 mph50%30.01 "HgN/A
2:25 pm45 °FScattered clouds.9 mph66%30.01 "HgN/A
Weather by CustomWeather, © 2017

See weather overviewHow to use our weather pages